Preview of NWS' New Version of Forecast
This preview is not operational and should not be used for support decisions.

Regional Weather Roundup (RWR)

Issued by National Weather Service (NWS)

                            
000
ASUS45 KABQ 191601
RWRNM 
NEW MEXICO REGIONAL WEATHER ROUNDUP
NATIONAL WEATHER SERVICE ALBUQUERQUE NM
900 AM MST TUE FEB 19 2019

NOTE: "FAIR" MEANS FEW OR NO CLOUDS BELOW 12,000 FEET AGL WITH NO
       SIGNIFICANT WEATHER OR OBSTRUCTIONS TO VISION.

      THIS PRODUCT IS RELEASED AS TWO VERSIONS.  ONE VERSION NEAR
      THE TOP OF THE HOUR CONTAINING PRELIMINARY DATA FROM ALBUQUERQUE
      AND OTHER STATIONS.  A FINAL VERSION WITH ADDITIONAL DATA IS 
      ISSUED ABOUT 10 MINUTES AFTER THE HOUR.
 
NMZ501-503-504-510>518-191700-
NORTHWEST PLATEAU/NORTHCENTRAL MOUNTAINS
  
CITY           SKY/WX    TMP DP  RH WIND       PRES   REMARKS
FARMINGTON     LGT SNOW  23  20  88 SE7       29.80S FOG     WCI  15  
LOS ALAMOS     LGT SNOW  15  11  82 S10G17    29.80F WCI   3          
SANTA FE       CLOUDY    19  11  70 S16       29.84R WCI   4          
TAOS           SNOW      19  13  77 MISG      29.82S VSB 1/2          
ANGEL FIRE       N/A      7   1  79 NE7       29.76S WCI  -5          

$$
NMZ402-403-502-505>509-191700-
WESTCENTRAL MOUNTAINS/SOUTHWEST MOUNTAINS
  
CITY           SKY/WX    TMP DP  RH WIND       PRES   REMARKS
GALLUP         LGT SNOW  21  17  84 SW6       29.80R FOG     WCI  13  
GRANTS         LGT SNOW  19  16  88 SE12      29.82S WCI   6          
SILVER CITY    FAIR      31  19  61 NW18      29.84S WCI  19          

$$
NMZ407-409-411-412-191700-
SOUTHERN DESERTS
  
CITY           SKY/WX    TMP DP  RH WIND       PRES   REMARKS
DEMING         CLOUDY    35  27  72 SW9       29.88R WCI  28          
LAS CRUCES     LGT SNOW  34  28  79 SE8       29.90R WCI  27          
HOLLOMAN AFB   CLOUDY    33  18  53 CALM      29.92S                  
ALAMOGORDO     FAIR      34  18  51 NW6       29.90S WCI  29          
T OR C         CLOUDY    34  18  52 N12       29.83S WCI  25          

$$
NMZ519>523-191700-
CENTRAL VALLEYS/CENTRAL HIGHLANDS
  
CITY           SKY/WX    TMP DP  RH WIND       PRES   REMARKS
ALBUQUERQUE    SNOW      20  16  84 E18       29.87R VSB 1/2 WCI   5  
DOUBLE EAGLE   LGT SNOW  18  16  93 N3        29.86R VSB 3/4          
CLINES CORNERS LGT SNOW  12   6  77 E13       29.83R VSB 1   WCI  -3  
BELEN          LGT SNOW  23  21  92 NW10      29.88R WCI  12          
SOCORRO        CLOUDY    25  20  81 N9        29.88R WCI  15          

$$
NMZ524>526-539-540-191700-
SOUTHCENTRAL MOUNTAINS
  
CITY           SKY/WX    TMP DP  RH WIND       PRES   REMARKS
RUIDOSO        NOT AVBL                                               

$$
NMZ527>531-191700-
NORTHEAST HIGHLANDS/NORTHEAST PLAINS
  
CITY           SKY/WX    TMP DP  RH WIND       PRES   REMARKS
LAS VEGAS      LGT SNOW  12   9  87 SE3       29.85S FOG              
RATON          LGT SNOW  12   9  87 SW3       29.86F FOG              
CLAYTON        LGT SNOW  14  10  84 SE10      29.96F FOG     WCI   1  

$$
NMZ532>537-191700-
EASTCENTRAL PLAINS
  
CITY           SKY/WX    TMP DP  RH WIND       PRES   REMARKS
SANTA ROSA     LGT SNOW  19  16  86 E6        29.96F WCI  11          
TUCUMCARI      LGT SNOW  21  13  71 E8        30.01S WCI  11          
CANNON AFB     LGT SNOW  19  14  79 E9        30.00F FOG     WCI   9  
CLOVIS AIRPORT LGT SNOW  18  16  92 NE8       30.01F FOG     WCI   8  

$$
NMZ028-029-538-191700-
SOUTHEAST PLAINS
  
CITY           SKY/WX    TMP DP  RH WIND       PRES   REMARKS
ROSWELL        CLOUDY    27  17  66 NE3       30.00S                  
ARTESIA        MIX PCPN  27  18  69 CALM      30.02S                  
CARLSBAD       CLOUDY    26  16  65 N6        30.02R WCI  19          
HOBBS          CLOUDY    27  18  69 E9        30.01R WCI  17          


$$